{"data":{"norad_id":53652,"intl_designator":"2022-105E","name":"STARLINK-4374","alt_names":[],"object_type":"PAYLOAD","status":"ACTIVE","operator":null,"country":"US","launch_date":"2022-08-31","launch_site_code":"AFWTR","launch_vehicle":null,"mission":null,"orbit_class":"UNKNOWN","rcs_meters":null,"size_class":null,"mass_kg":null,"dimensions":null,"purposes":["comms"],"wikipedia_slug":null,"has_3d_model":false,"image_url":null,"decayed_at":null,"tle_current":{"epoch":"2026-05-25T02:37:01.805952Z","epoch_age_seconds":65070,"freshness":"FRESH","line1":"1 53652U 22105E   26145.10904868 -.00000935  00000+0 -60734-4 0  9997","line2":"2 53652  97.4506  25.0511 0002122  78.2255 281.9210 15.05654379204727","mean_motion":15.05654379,"eccentricity":0.0002122,"inclination_deg":97.4506,"raan_deg":25.0511,"arg_perigee_deg":78.2255,"mean_anomaly_deg":281.921,"bstar":-6.0734e-5,"rev_number":20472,"period_min":95.63947875982,"perigee_km":548.02767783531,"apogee_km":550.9677660113,"semimajor_km":6927.6347219233,"source":"CELESTRAK","updated_at":"2026-05-25T13:38:17.484963Z"}}}